EDT,Max TemperatureF,Mean TemperatureF,Min TemperatureF,Max Dew PointF,MeanDew PointF,Min DewpointF,Max Humidity, Mean Humidity, Min Humidity, Max Sea Level PressureIn, Mean Sea Level PressureIn, Min Sea Level PressureIn, Max VisibilityMiles, Mean VisibilityMiles, Min VisibilityMiles, Max Wind SpeedMPH, Mean Wind SpeedMPH, Max Gust SpeedMPH,PrecipitationIn, CloudCover, Events, WindDirDegrees
2013-3-1,39,34,28,31,27,23,100,82,57,29.70,29.61,29.54,10,6,0,13,3,21,0.00,6,Fog,335
2013-3-2,37,34,30,27,24,21,75,69,62,29.71,29.68,29.65,10,10,10,14,9,22,0.00,8,,329
2013-3-3,33,30,26,27,23,19,86,74,66,29.67,29.64,29.58,10,7,1,14,8,18,0.00,8,Snow,320
2013-3-4,36,30,24,21,19,16,72,64,52,29.81,29.69,29.64,10,10,9,20,11,26,0.00,7,,299
2013-3-5,43,35,27,27,23,18,88,68,49,30.08,29.98,29.83,10,10,3,13,7,18,0.00,5,,340
2013-3-6,37,32,28,32,30,25,93,82,70,30.12,30.07,30.04,10,7,1,17,7,33,0.03,8,Rain-Snow,51
2013-3-7,35,32,30,31,28,24,96,85,64,30.10,30.06,30.02,10,3,1,18,12,28,0.13,8,Snow,3
2013-3-8,37,32,28,28,27,20,93,83,54,30.20,30.03,29.96,10,3,0,16,10,22,0.10,7,Fog-Snow,349
2013-3-9,53,38,23,21,19,14,88,56,21,30.36,30.26,30.20,10,10,10,10,4,,0.00,0,,337
2013-3-10,48,33,18,31,24,16,96,68,41,30.41,30.34,30.28,10,10,7,10,2,,0.00,1,,176
2013-3-11,48,40,33,39,33,30,89,77,56,30.30,30.21,30.13,10,10,10,15,8,20,0.00,4,,179
2013-3-12,52,47,42,52,45,36,100,93,79,30.11,29.89,29.69,10,7,2,12,5,21,0.92,8,Rain,182
2013-3-13,46,38,30,36,27,16,96,66,34,29.81,29.78,29.74,10,10,10,16,6,23,0.00,4,,299
2013-3-14,34,26,19,23,11,4,65,50,41,29.86,29.81,29.76,10,10,10,18,9,28,0.00,6,,305
2013-3-15,37,27,17,28,17,1,93,63,27,29.88,29.74,29.64,10,8,1,14,8,25,0.00,5,Snow,256
2013-3-16,37,28,21,27,15,7,86,56,32,29.89,29.80,29.69,10,9,2,9,6,20,0.01,5,Snow,316
2013-3-17,35,26,19,16,8,0,88,49,24,30.32,30.06,29.90,10,10,10,16,6,26,0.00,0,,322
2013-3-18,36,22,9,25,8,-4,86,54,19,30.46,30.32,30.18,10,8,2,12,4,22,0.00,3,Snow,117
2013-3-19,34,30,26,31,28,25,100,91,79,30.17,29.83,29.66,10,2,0,16,5,23,0.66,8,Fog-Snow,13
2013-3-20,35,28,18,25,19,15,96,70,48,29.82,29.76,29.71,10,10,3,15,6,25,0.00,4,Snow,259
2013-3-21,39,24,10,19,11,6,93,70,29,29.82,29.74,29.61,10,7,1,9,1,,0.00,3,,297
2013-3-22,36,24,12,18,15,11,92,63,43,29.77,29.70,29.65,10,10,10,17,6,28,0.00,3,,283
2013-3-23,37,32,26,20,17,15,75,55,41,29.82,29.75,29.70,10,10,9,21,10,33,0.00,6,,280
2013-3-24,42,35,28,23,21,18,81,57,43,29.86,29.81,29.75,10,10,10,16,7,22,0.00,4,,322
2013-3-25,42,34,27,27,24,21,81,64,47,29.77,29.64,29.52,10,10,10,14,5,18,0.00,5,,28
2013-3-26,46,36,26,30,24,19,87,63,36,29.82,29.69,29.58,10,10,7,17,5,22,0.00,6,Snow,315
2013-3-27,50,34,19,30,23,18,92,64,33,29.90,29.83,29.79,10,10,8,17,3,23,0.00,4,,313
2013-3-28,48,41,34,34,30,26,93,67,41,30.05,29.97,29.90,10,10,10,10,5,18,0.00,8,Rain,330
2013-3-29,54,40,28,32,29,24,92,66,34,30.08,30.05,30.00,10,10,10,13,3,20,0.00,6,,297
2013-3-30,55,40,26,30,21,13,96,55,20,30.12,30.07,30.01,10,10,8,10,2,21,0.00,1,,323
2013-3-31,55,38,21,39,26,19,92,65,25,30.13,29.99,29.72,10,10,5,20,4,26,0.09,3,Rain,163